ATLAS D DEB, 2327

Orbit data source: Space-Track

ATLAS D DEB, 2327 is space debris in LEO originally from a launch on Thu, 14 Jul 1966 UTC launched from the Air Force Western Test Range (AFWTR). Debris objects in space refer to the collection of defunct objects orbiting the Earth. Examples of debris include non-operational satellites, rocket bodies, and fragments generated from explosions, collisions, or faulty payload assembly.

Loading next visibility...
Identifier
2327, 1966-063B
Orbit
LEO
Country
Flag of USUS
Related business
Manufacturer
Goodyear
Mission
Spacecraft
Bus & Motor
CONTAINER, Unknown motor
Mass
2 kg wet, 2 kg dry
Launch date (UTC)
1966-07-14 (60 years ago)
Launch vehicle
Unknown
Launch site
Air Force Western Test Range (AFWTR)
Object type
Payload
Rocket body
Debris
Shape & HBR
Unknown
Radar Cross Section
Medium (>0.1 m² and <1 m²)

Expand to show TLE details & history
Last TLE update: 16 hours ago

TLE from 16 hours ago
0 ATLAS D DEB
1  2327U 66063B   26035.32736678  .00001774  00000-0  91039-3 0  9997
2  2327 144.1952 319.4825 0031917 272.7932  86.9107 14.05381072 19380
Epoch: 2026-02-04T07:51Z
TLE epoch observation values (Epoch: 2026-02-04T07:51:24.489Z)
Latitude
0.00001°
Longitude
67.13491°
Altitude
873.091 km
Speed
7.418 km/s
True Right ascension
21h 17m 55s
True Declination
0° 00' 00"
Sunlit
Object was in daylight at epoch
Visualization orbit readout
Latitude
Unknown
Longitude
Unknown
Altitude
Unknown
Speed
Unknown
Apparent Right ascension
Unknown
Apparent Declination
Unknown
Sunlit
N/A
Visualization observer readout
Local Sidereal Time
01:39:33
Azimuth
Unknown
Elevation
Unknown
Doppler factor
Unknown
Orbital elements
Apogee altitude
901.341 km
Perigee altitude
855.021 km
Semi-major axis
7,256.318 km
Eccentricity
0.00319
Inclination
144.1952°
RAAN
319.4825°
Arg. of periapsis
272.7932°
True anomaly
87.27599°
Mean anomaly
86.9107°
Eccentric anomaly
87.09334°
Mean motion
3.51131 °/min
Orbital period
102.53 mins
BSTAR
0.00091039
Loading maneuver chart data...
Computing Atmospheric mass density...
Loading historical data...
Loading historical data...
Loading historical data...
Loading historical data...
Loading historical data...
Loading historical data...
Loading historical data...

Documentation

Showing up to 5 results
|